Hourly Data Report for October 01, 2014

All times are specified in Local Standard Time (LST). Add 1 hour to adjust for Daylight Saving Time where and when it is observed.

QIKIQTARJUAQ A
NUNAVUT

67°32'48.000" N
64°01'54.000" W
5.50 m
2400577
YVM

Download Data

Hourly Data (October 2014)
Hourly Data Report for October 1, 2014
Temp Definition
°C
Dew Point Temp Definition
°C
Rel Hum Definition
%
Wind Dir Definition
10's deg

Wind Spd Definition
km/h
Visibility Definition
km
Stn Press Definition
kPa
Hmdx Definition


Wind Chill Definition


Weather Definition


TIME
00:00 Legend Double Dagger -2.5 -3.8 91 32 21 2.8 100.45   -9 Snow
01:00 Legend Double Dagger -1.6 -6.0 72 32 13 16.1 100.45   -6 LegendNANA
02:00 Legend Double Dagger -1.6 -6.3 71 32 13 16.1 100.48   -6 LegendNANA
03:00 Legend Double Dagger -3.3 -6.7 77 16 5 16.1 100.51   -5 LegendNANA
04:00 Legend Double Dagger -3.2 -6.8 76 14 8 16.1 100.53   -6 LegendNANA
05:00 Legend Double Dagger -3.0 -6.8 75 LegendMM 4 16.1 100.55   -5 LegendNANA
06:00 Legend Double Dagger -3.6 -7.2 76 15 8 16.1 100.55   -7 LegendNANA
07:00 Legend Double Dagger -2.6 -6.5 75 18 9 16.1 100.57   -6 LegendNANA
08:00 Legend Double Dagger -3.8 -8.1 72 17 15 16.1 100.55   -9 LegendNANA
09:00 Legend Double Dagger -3.2 -8.0 70 19 13 16.1 100.55   -8 LegendNANA
10:00 Legend Double Dagger -3.7 -7.7 74 5 5 16.1 100.57   -6 LegendNANA
11:00 Legend Double Dagger -2.0 -10.4 53 32 21 16.1 100.60   -8 LegendNANA
12:00 Legend Double Dagger -2.2 -12.1 47 34 13 16.1 100.65   -7 LegendNANA
13:00 Legend Double Dagger -2.4 -11.6 50 33 15 16.1 100.70   -7 LegendNANA
14:00
15:00 Legend Double Dagger -5.4 -11.8 61 34 9 16.1 100.76   -9 LegendNANA
16:00 Legend Double Dagger -6.4 -13.3 58 13 5 16.1 100.77   -9 LegendNANA
17:00 Legend Double Dagger -7.1 -13.8 59 15 9 16.1 100.77   -11 LegendNANA
18:00 Legend Double Dagger -6.5 -14.5 53 14 13 16.1 100.78   -12 LegendNANA
19:00 Legend Double Dagger -6.0 -14.8 50 14 13 16.1 100.82   -11 LegendNANA
20:00 Legend Double Dagger -7.3 -14.1 59 12 11 16.1 100.83   -12 LegendNANA
21:00 Legend Double Dagger -7.6 -13.6 63 15 8 16.1 100.84   -12 LegendNANA
22:00 Legend Double Dagger -8.0 -13.5 65 14 8 16.1 100.86   -12 LegendNANA
23:00 Legend Double Dagger -8.0 -13.7 64 16 8 16.1 100.88   -12 LegendNANA

Notes on Data Quality.

Legend

  • E = Estimated
  • M = Missing
  • NA = Not Available
  • ‡ = Partner data that is not subject to review by the National Climate Archives
Date modified: